Location: Newark
(7.0858°N, 171.3717°E)
Time: 03:44:38
(UTC+00:00)

Vanguard 2 - Pass Details

Date: 03 December 2020
Orbit: 553 x 2937 km, 32.9° (Epoch: 26 January)

Event Time Altitude Azimuth Distance (km) Brightness Sun altitude
Rises 14:42:31 0° 215° (SW) 6,720 12.3 -53.5°
Reaches altitude 10° 14:47:59 10° 205° (SSW) 5,765 11.9 -52.3°
Maximum altitude 15:02:35 31° 150° (SSE) 3,979 11.3 -49.1°
Drops below altitude 10° 15:14:26 10° 94° (E) 4,725 12.0 -46.4°
Sets 15:18:15 0° 84° (E) 5,402 12.4 -45.6°
